カタログに戻る

BS-3A

YURI 3A

運用中通信GEO
NORAD 20771·PAYLOAD·🇯🇵 Japan

打ち上げ Aug 28, 1990 から Tanegashima Space Center

Loading…

TLE

最新Source: Space-Track

元期: Sep 14, 2026, 11:28 UTC

1 20771U 90077A   26257.47837970 -.00000053  00000-0  00000-0 0  9996
2 20771  15.6199 356.6960 0013500 269.3657 108.9613  0.98812792136466

AllMySatでBS-3Aをリアルタイム追跡

Download on the App Store